Weather History for KAWM - December, 2012

Change the Weather History Date:

Saturday, December 1, 2012

  Actual Average Record
Temperature  
Mean Temperature 62 °F -  
Max Temperature 70 °F 56 °F 75 °F (1982)
Min Temperature 53 °F 38 °F 19 °F (1964)
Degree Days  
Heating Degree Days 4    
Growing Degree Days 12 (Base 50)    
Moisture  
Dew Point 48 °F    
Average Humidity 64    
Maximum Humidity 78    
Minimum Humidity 51    
Precipitation  
Precipitation 0.00 in - - ()
Sea Level Pressure  
Sea Level Pressure 30.15 in    
Wind  
Wind Speed 10 mph (South)    
Max Wind Speed 20 mph    
Max Gust Speed 23 mph    
Visibility 10 miles    
Events      
Averages and records for this station are not official NWS values.
T = Trace of Precipitation, MM = Missing Value Source: NWS Daily Summary

Daily Weather History Graph

Daily Weather History Graph

Search for Another Location

Airport or City:

Trip Planner

Search our weather history database for the weather conditions in past years. The results will help you decide how hot, cold, wet, or windy it might be!

Date:

Astronomy

Dec. 01, 2012 Rise Set
Actual Time 6:51 AM CST 4:48 PM CST
Civil Twilight 6:23 AM CST 5:16 PM CST
Nautical Twilight 5:52 AM CST 5:48 PM CST
Astronomical Twilight 5:21 AM CST 6:18 PM CST
Moon 7:37 PM CST (12/1) 9:05 AM CST (12/1)
Length of Visible Light 10h 53m
Length of Day
9h 57m
Waning Gibbous, 91% of the Moon is Illuminated
Dec 1
Waning Gibbous
Dec 6
Last Quarter
Dec 13
New
Dec 19
First Quarter
Dec 28
Full

Hourly Weather History & Observations

Time (CST) Temp. Dew Point Humidity Pressure Visibility Wind Dir Wind Speed Gust Speed Precip Events Conditions
12:53 AM 53.1 °F 45.0 °F 74% 30.18 in 10.0 mi SSE 6.9 mph - N/A   Overcast
1:53 AM 54.0 °F 44.1 °F 69% 30.19 in 10.0 mi South 5.8 mph - N/A   Overcast
3:53 AM 53.1 °F 45.0 °F 74% 30.19 in 10.0 mi South 4.6 mph - N/A   Overcast
4:53 AM 54.0 °F 45.0 °F 72% 30.19 in 10.0 mi South 5.8 mph - N/A   Overcast
5:53 AM 54.0 °F 45.0 °F 72% 30.19 in 10.0 mi South 5.8 mph - N/A   Overcast
6:53 AM 55.0 °F 46.0 °F 72% 30.20 in 10.0 mi South 8.1 mph - N/A   Overcast
7:53 AM 55.9 °F 46.0 °F 69% 30.20 in 10.0 mi South 10.4 mph - N/A   Overcast
8:53 AM 57.0 °F 46.9 °F 69% 30.21 in 10.0 mi South 15.0 mph - N/A   Overcast
9:53 AM 62.1 °F 48.0 °F 60% 30.22 in 10.0 mi South 15.0 mph - N/A   Scattered Clouds
10:53 AM 64.9 °F 48.9 °F 56% 30.19 in 10.0 mi South 16.1 mph 23.0 mph N/A   Partly Cloudy
11:53 AM 66.9 °F 50.0 °F 54% 30.16 in 10.0 mi South 15.0 mph 23.0 mph N/A   Clear
12:53 PM 70.0 °F 51.1 °F 51% 30.14 in 10.0 mi South 19.6 mph - N/A   Partly Cloudy
1:53 PM 69.1 °F 51.1 °F 53% 30.12 in 10.0 mi South 19.6 mph - N/A   Overcast
3:53 PM 68.0 °F 51.1 °F 55% 30.10 in 10.0 mi South 18.4 mph - N/A   Mostly Cloudy
4:53 PM 64.0 °F 52.0 °F 65% 30.09 in 10.0 mi South 10.4 mph - N/A   Clear
5:53 PM 57.9 °F 51.1 °F 78% 30.10 in 10.0 mi South 6.9 mph - N/A   Clear
6:53 PM 61.0 °F 50.0 °F 67% 30.09 in 10.0 mi SSE 11.5 mph - N/A   Clear
7:53 PM 62.1 °F 48.0 °F 60% 30.09 in 10.0 mi South 13.8 mph - N/A   Clear
8:53 PM 61.0 °F 46.0 °F 58% 30.09 in 10.0 mi South 11.5 mph - N/A   Clear
9:53 PM 61.0 °F 46.0 °F 58% 30.09 in 10.0 mi South 15.0 mph - N/A   Clear
10:53 PM 59.0 °F 46.9 °F 64% 30.12 in 10.0 mi South 10.4 mph - N/A   Clear
11:53 PM 61.0 °F 48.0 °F 62% 30.13 in 10.0 mi South 11.5 mph - N/A   Overcast